Location: Ponte Samoggia
(44.5667°N, 11.1333°E)
Time: 16:18:56
(UTC+00:00)

Cosmos 1980 - Pass Details

Date: 26 May 2022
Orbit: 839 x 846 km, 71.0° (Epoch: 07 July)

Event Time Altitude Azimuth Distance (km) Brightness Sun altitude
Exits shadow 00:20:05 51° 210° (SSW) 1,052 3.8 -22.5°
Maximum altitude 00:21:36 86° 294° (WNW) 848 3.6 -22.5°
Drops below altitude 10° 00:27:17 10° 25° (NNE) 2,464 7.3 -22.2°
Sets 00:29:44 0° 26° (NNE) 3,403 8.3 -22.0°
